Date,TemperatureHighF,TemperatureAvgF,TemperatureLowF,DewpointHighF,DewpointAvgF,DewpointLowF,HumidityHigh,HumidityAvg,HumidityLow,PressureMaxIn,PressureMinIn,WindSpeedMaxMPH,WindSpeedAvgMPH,GustSpeedMaxMPH,PrecipitationSumIn
2013-4-1,27.8,21.7,16.5,15.3,9.1,4.0,86,60,38,30.10,29.89,12,1,17,0.00
2013-4-2,32.9,23.2,14.4,13.8,7.8,0.6,80,54,28,30.28,30.09,17,1,17,0.00
2013-4-3,38.0,24.0,5.4,18.5,9.3,0.6,81,56,27,30.41,30.04,7,2,11,0.00
2013-4-4,46.7,37.3,26.1,29.9,22.0,16.9,73,55,35,30.06,29.89,12,2,15,0.00
2013-4-5,37.3,29.4,18.3,26.1,15.1,8.8,85,58,31,30.22,30.05,6,1,7,0.00
2013-4-6,39.6,32.6,27.6,36.2,30.3,22.7,100,92,67,30.06,29.50,17,3,20,0.32
2013-4-7,40.1,33.3,29.1,32.2,29.1,26.6,100,85,64,29.89,29.52,5,1,7,0.00
2013-4-8,36.5,34.1,31.2,36.3,33.4,27.2,100,97,81,29.99,29.75,5,0,6,0.44
2013-4-9,35.2,33.2,27.8,35.0,28.9,16.7,100,86,52,30.14,29.97,11,2,17,0.00
2013-4-10,40.6,33.1,26.9,21.9,17.6,12.5,78,54,33,30.17,30.01,18,3,21,0.00
2013-4-11,33.8,29.5,24.5,24.1,18.2,7.1,97,65,33,30.03,29.70,20,4,25,0.11
2013-4-12,30.1,26.5,24.1,27.4,24.4,22.8,96,92,78,29.73,29.62,15,2,18,0.11
2013-4-13,32.8,26.8,17.8,27.2,22.6,14.5,96,84,69,29.95,29.69,9,0,11,0.06
2013-4-14,36.8,27.9,11.1,31.5,23.4,8.2,100,85,55,30.01,29.66,14,2,16,0.01
2013-4-15,41.3,35.2,31.3,36.5,28.5,24.0,100,77,52,29.81,29.54,16,4,19,0.23
2013-4-16,43.3,35.4,28.8,29.4,26.3,22.9,87,70,45,30.33,29.81,13,1,13,0.00
2013-4-17,40.2,33.3,25.1,32.9,25.9,22.4,98,75,59,30.35,29.95,11,1,15,0.01
2013-4-18,33.7,32.4,31.3,33.7,32.3,31.3,100,100,98,29.95,29.21,16,2,17,0.55
2013-4-19,31.3,25.3,19.1,31.3,23.5,16.4,100,93,80,29.86,29.10,9,0,13,0.11
2013-4-20,31.8,22.9,10.4,17.9,13.8,7.3,90,70,42,30.36,29.86,7,1,10,0.00
2013-4-21,35.0,29.5,19.4,31.9,22.9,13.0,96,76,67,30.40,30.11,21,4,26,0.04
2013-4-22,38.3,35.5,30.9,38.3,35.4,30.9,100,100,96,30.16,30.01,6,1,12,0.57
2013-4-23,33.8,30.8,22.7,32.8,28.7,21.3,100,92,71,30.01,29.87,10,1,15,0.33
2013-4-24,44.5,32.1,17.7,31.0,22.0,16.0,96,70,43,29.97,29.83,10,2,14,0.02
2013-4-25,45.1,36.5,29.8,32.0,27.0,19.0,100,72,36,30.16,29.83,11,1,14,0.08
2013-4-26,61.8,44.2,30.6,39.1,33.2,23.6,94,68,40,30.15,29.98,12,2,14,0.05
2013-4-27,65.2,49.0,30.0,44.5,37.2,28.7,100,68,34,30.09,29.87,7,1,10,0.00
2013-4-28,61.3,54.4,41.2,48.4,41.3,37.9,95,63,46,29.87,29.65,7,1,7,0.02
2013-4-29,68.4,53.8,44.1,55.9,49.6,44.1,100,88,48,29.72,29.59,15,1,15,0.34
2013-4-30,74.9,60.5,48.6,55.5,49.4,36.9,100,71,35,29.80,29.43,12,2,14,0.01